| time (UTC) | temp F | wind direction | speed knots | gust knots | rain 1hr in | rain 24hr in | rain mn in | humidity % | barometer mb |
| 20260510143851 | 70 | 193 | 4.3 | 9.6 | 0.00 | 0.00 | 0.00 | 75 | 1012.6 |
| 20260510143329 | 70 | 147 | 4.3 | 9.6 | 0.00 | 0.00 | 0.00 | 76 | 1012.7 |
| 20260510142824 | 69 | 165 | 4.3 | 8.7 | 0.00 | 0.00 | 0.00 | 76 | 1012.6 |
| 20260510142310 | 69 | 229 | 4.3 | 8.7 | 0.00 | 0.00 | 0.00 | 79 | 1012.6 |
| 20260510142007 | 68 | 216 | 3.5 | 8.7 | 0.00 | 0.00 | 0.00 | 80 | 1012.8 |
| 20260510141232 | 67 | 251 | 3.5 | 8.7 | 0.00 | 0.00 | 0.00 | 83 | 1013.1 |
| 20260510140703 | 67 | 186 | 3.5 | 8.7 | 0.00 | 0.00 | 0.00 | 82 | 1013.4 |
| 20260510140410 | 66 | 132 | 2.6 | 7.8 | 0.00 | 0.00 | 0.00 | 83 | 1013.5 |
| 20260510135847 | 66 | 158 | 1.7 | 7.0 | 0.00 | 0.00 | 0.00 | 85 | 1013.7 |
| 20260510135127 | 66 | 155 | 1.7 | 4.3 | 0.00 | 0.00 | 0.00 | 87 | 1013.7 |
| 20260510134629 | 65 | 154 | 1.7 | 3.5 | 0.00 | 0.00 | 0.00 | 88 | 1013.9 |
| 20260510134107 | 65 | 136 | 0.9 | 4.3 | 0.00 | 0.00 | 0.00 | 89 | 1013.9 |
| 20260510133541 | 65 | 247 | 0.9 | 4.3 | 0.00 | 0.00 | 0.00 | 89 | 1013.8 |
| 20260510133238 | 65 | 153 | 1.7 | 5.2 | 0.00 | 0.00 | 0.00 | 90 | 1013.8 |
| 20260510132518 | 65 | 191 | 1.7 | 5.2 | 0.00 | 0.00 | 0.00 | 90 | 1013.6 |
| 20260510131952 | 65 | 127 | 1.7 | 5.2 | 0.00 | 0.00 | 0.00 | 90 | 1013.6 |
| 20260510131432 | 65 | 154 | 1.7 | 5.2 | 0.00 | 0.00 | 0.00 | 90 | 1013.5 |
| 20260510130928 | 65 | 130 | 1.7 | 5.2 | 0.00 | 0.00 | 0.00 | 91 | 1013.4 |
| 20260510130429 | 64 | 105 | 1.7 | 5.2 | 0.00 | 0.00 | 0.00 | 91 | 1013.4 |
| 20260510125859 | 64 | 111 | 1.7 | 4.3 | 0.00 | 0.00 | 0.00 | 91 | 1013.3 |
| 20260510125359 | 64 | 113 | 0.9 | 5.2 | 0.00 | 0.00 | 0.00 | 91 | 1013.4 |
| 20260510124858 | 64 | 151 | 0.9 | 5.2 | 0.00 | 0.00 | 0.00 | 91 | 1013.4 |
| 20260510124357 | 64 | 123 | 0.9 | 4.3 | 0.00 | 0.00 | 0.00 | 91 | 1013.4 |
| 20260510123900 | 64 | 161 | 0.9 | 4.3 | 0.00 | 0.00 | 0.00 | 91 | 1013.2 |
| 20260510123333 | 64 | 108 | 0.9 | 3.5 | 0.00 | 0.00 | 0.00 | 91 | 1013.2 |
| 20260510122810 | 64 | 129 | 0.9 | 4.3 | 0.00 | 0.00 | 0.00 | 91 | 1013.0 |
| 20260510122506 | 63 | 143 | 0.9 | 4.3 | 0.00 | 0.00 | 0.00 | 91 | 1013.0 |
| 20260510121746 | 63 | 124 | 0.0 | 2.6 | 0.00 | 0.00 | 0.00 | 91 | 1013.0 |
| 20260510121217 | 63 | 126 | 0.0 | 2.6 | 0.00 | 0.00 | 0.00 | 91 | 1013.0 |
| 20260510121205 | 63 | 128 | 0.0 | 1.7 | 0.00 | 0.00 | 0.00 | 91 | 1012.9 |
| 20260510120148 | 63 | 128 | 0.0 | 1.7 | 0.00 | 0.00 | 0.00 | 91 | 1012.9 |
| 20260510115643 | 63 | 128 | 0.0 | 1.7 | 0.00 | 0.00 | 0.00 | 91 | 1012.9 |
| 20260510115141 | 63 | 128 | 0.0 | 1.7 | 0.00 | 0.00 | 0.00 | 91 | 1012.9 |
| 20260510114615 | 63 | 128 | 0.0 | 0.0 | 0.00 | 0.00 | 0.00 | 90 | 1012.9 |
| 20260510114048 | 63 | 128 | 0.0 | 0.0 | 0.00 | 0.00 | 0.00 | 90 | 1013.0 |
| 20260510113523 | 63 | 128 | 0.0 | 0.9 | 0.00 | 0.00 | 0.00 | 90 | 1012.9 |
| 20260510113015 | 63 | 128 | 0.0 | 0.9 | 0.00 | 0.00 | 0.00 | 90 | 1012.8 |
| 20260510112738 | 63 | 128 | 0.0 | 0.0 | 0.00 | 0.00 | 0.00 | 90 | 1012.7 |
| 20260510112003 | 63 | 128 | 0.0 | 0.9 | 0.00 | 0.00 | 0.00 | 90 | 1012.7 |
| 20260510111438 | 63 | 128 | 0.0 | 0.9 | 0.00 | 0.00 | 0.00 | 90 | 1012.5 |
| 20260510110938 | 63 | 128 | 0.0 | 1.7 | 0.00 | 0.00 | 0.00 | 90 | 1012.6 |
| 20260510110414 | 63 | 128 | 0.9 | 3.5 | 0.00 | 0.00 | 0.00 | 90 | 1012.6 |
| 20260510105913 | 63 | 127 | 0.9 | 3.5 | 0.00 | 0.00 | 0.00 | 90 | 1012.5 |
| 20260510105635 | 63 | 134 | 1.7 | 4.3 | 0.00 | 0.00 | 0.00 | 90 | 1012.4 |
| 20260510104912 | 64 | 91 | 1.7 | 4.3 | 0.00 | 0.00 | 0.00 | 90 | 1012.2 |
| 20260510104356 | 64 | 108 | 0.9 | 3.5 | 0.00 | 0.00 | 0.00 | 90 | 1012.2 |
| 20260510103857 | 64 | 135 | 0.0 | 2.6 | 0.00 | 0.00 | 0.00 | 90 | 1012.3 |
| 20260510103620 | 64 | 310 | 0.0 | 2.6 | 0.00 | 0.00 | 0.00 | 89 | 1012.1 |
| 20260510102831 | 64 | 60 | 0.0 | 1.7 | 0.00 | 0.00 | 0.00 | 89 | 1012.3 |
| 20260510102308 | 64 | 27 | 0.9 | 6.1 | 0.00 | 0.00 | 0.00 | 89 | 1012.2 |
| 20260510101742 | 64 | 70 | 0.9 | 6.1 | 0.00 | 0.00 | 0.00 | 88 | 1012.2 |
| 20260510101439 | 64 | 109 | 1.7 | 7.8 | 0.00 | 0.00 | 0.00 | 88 | 1012.1 |
| 20260510100710 | 64 | 61 | 2.6 | 11.3 | 0.00 | 0.00 | 0.00 | 87 | 1011.7 |
| 20260510100144 | 65 | 56 | 3.5 | 11.3 | 0.00 | 0.00 | 0.00 | 86 | 1011.6 |
| 20260510095637 | 65 | 146 | 4.3 | 11.3 | 0.00 | 0.00 | 0.00 | 85 | 1011.6 |
| 20260510095133 | 66 | 23 | 4.3 | 13.0 | 0.00 | 0.00 | 0.00 | 83 | 1012.8 |
| 20260510094632 | 67 | 4 | 5.2 | 13.0 | 0.00 | 0.00 | 0.00 | 80 | 1014.1 |
| 20260510094127 | 68 | 319 | 5.2 | 13.9 | 0.00 | 0.00 | 0.00 | 77 | 1013.9 |
| 20260510093627 | 69 | 74 | 4.3 | 13.9 | 0.00 | 0.00 | 0.00 | 74 | 1013.2 |
| 20260510093537 | 70 | 91 | 4.3 | 13.0 | 0.00 | 0.00 | 0.00 | 71 | 1012.7 |
| 20260510092533 | 71 | 349 | 5.2 | 15.6 | 0.00 | 0.00 | 0.00 | 71 | 1012.7 |
| 20260510092005 | 71 | 15 | 6.1 | 15.6 | 0.00 | 0.00 | 0.00 | 72 | 1012.3 |
| 20260510091505 | 72 | 140 | 5.2 | 20.9 | 0.00 | 0.00 | 0.00 | 73 | 1012.1 |
| 20260510090939 | 73 | 12 | 2.6 | 12.2 | 0.00 | 0.00 | 0.00 | 85 | 1011.9 |
| 20260510090412 | 74 | 46 | 1.7 | 8.7 | 0.00 | 0.00 | 0.00 | 85 | 1011.6 |
| 20260510085843 | 74 | 79 | 0.9 | 3.5 | 0.00 | 0.00 | 0.00 | 63 | 1011.5 |
| 20260510085340 | 74 | 6 | 0.9 | 3.5 | 0.00 | 0.00 | 0.00 | 63 | 1011.3 |
| 20260510085013 | 74 | 74 | 0.0 | 1.7 | 0.00 | 0.00 | 0.00 | 63 | 1010.4 |
| 20260510084857 | 74 | 54 | 0.0 | 1.7 | 0.00 | 0.00 | 0.00 | 63 | 1010.8 |
| 20260510083811 | 74 | 37 | 0.0 | 2.6 | 0.00 | 0.00 | 0.00 | 63 | 1010.6 |
| 20260510083241 | 74 | 41 | 0.9 | 2.6 | 0.00 | 0.00 | 0.00 | 62 | 1010.7 |
| 20260510082739 | 74 | 37 | 0.9 | 3.5 | 0.00 | 0.00 | 0.00 | 62 | 1010.7 |
| 20260510082211 | 74 | 359 | 0.9 | 3.5 | 0.00 | 0.00 | 0.00 | 62 | 1010.8 |
| 20260510081930 | 74 | 31 | 0.9 | 2.6 | 0.00 | 0.00 | 0.00 | 61 | 1010.5 |
| 20260510081141 | 74 | 153 | 0.9 | 1.7 | 0.00 | 0.00 | 0.00 | 60 | 1010.3 |
| 20260510080640 | 74 | 164 | 0.0 | 1.7 | 0.00 | 0.00 | 0.00 | 60 | 1010.0 |
| 20260510080115 | 74 | 164 | 0.0 | 0.0 | 0.00 | 0.00 | 0.00 | 60 | 1009.7 |
| 20260510075549 | 74 | 164 | 0.0 | 0.0 | 0.00 | 0.00 | 0.00 | 60 | 1009.6 |
| 20260510075019 | 75 | 164 | 0.0 | 2.6 | 0.00 | 0.00 | 0.00 | 60 | 1009.4 |
| 20260510074517 | 75 | 164 | 0.0 | 2.6 | 0.00 | 0.00 | 0.00 | 60 | 1009.3 |
| 20260510073952 | 75 | 164 | 0.0 | 6.1 | 0.00 | 0.00 | 0.00 | 60 | 1009.1 |
| 20260510073425 | 75 | 164 | 0.9 | 6.1 | 0.00 | 0.00 | 0.00 | 60 | 1008.9 |
| 20260510072857 | 75 | 164 | 1.7 | 4.3 | 0.00 | 0.00 | 0.00 | 59 | 1008.7 |
| 20260510072359 | 75 | 160 | 0.9 | 4.3 | 0.00 | 0.00 | 0.00 | 58 | 1008.9 |
| 20260510071820 | 75 | 109 | 0.0 | 2.6 | 0.00 | 0.00 | 0.00 | 58 | 1009.0 |
| 20260510071317 | 76 | 71 | 0.0 | 5.2 | 0.00 | 0.00 | 0.00 | 58 | 1009.2 |
| 20260510070753 | 76 | 11 | 0.0 | 5.2 | 0.00 | 0.00 | 0.00 | 58 | 1009.7 |
| 20260510070228 | 76 | 4 | 0.9 | 5.2 | 0.00 | 0.00 | 0.00 | 58 | 1010.1 |
| 20260510065659 | 75 | 36 | 1.7 | 5.2 | 0.00 | 0.00 | 0.00 | 58 | 1010.2 |
| 20260510065158 | 75 | 20 | 0.9 | 4.3 | 0.00 | 0.00 | 0.00 | 57 | 1010.3 |
| 20260510064629 | 75 | 10 | 1.7 | 4.3 | 0.00 | 0.00 | 0.00 | 57 | 1010.3 |
| 20260510064126 | 75 | 0 | 0.9 | 4.3 | 0.00 | 0.00 | 0.00 | 57 | 1010.3 |
| 20260510063623 | 75 | 2 | 0.9 | 4.3 | 0.00 | 0.00 | 0.00 | 57 | 1010.2 |
| 20260510063121 | 75 | 1 | 1.7 | 4.3 | 0.00 | 0.00 | 0.00 | 57 | 1010.2 |
| 20260510062553 | 75 | 359 | 2.6 | 4.3 | 0.00 | 0.00 | 0.00 | 57 | 1010.3 |
| 20260510062050 | 75 | 13 | 0.9 | 3.5 | 0.00 | 0.00 | 0.00 | 57 | 1010.3 |
| 20260510061547 | 75 | 170 | 0.0 | 1.7 | 0.00 | 0.00 | 0.00 | 57 | 1009.9 |
| 20260510061044 | 75 | 170 | 0.0 | 4.3 | 0.00 | 0.00 | 0.00 | 57 | 1009.3 |
| 20260510060541 | 75 | 170 | 0.9 | 4.3 | 0.00 | 0.00 | 0.00 | 57 | 1008.8 |
| 20260510060307 | 75 | 172 | 1.7 | 7.0 | 0.00 | 0.00 | 0.00 | 57 | 1008.4 |
| 20260510055513 | 75 | 170 | 1.7 | 7.0 | 0.00 | 0.00 | 0.00 | 57 | 1008.4 |
| 20260510055011 | 75 | 160 | 1.7 | 7.0 | 0.00 | 0.00 | 0.00 | 57 | 1008.4 |
| 20260510054443 | 75 | 164 | 1.7 | 7.0 | 0.00 | 0.00 | 0.00 | 58 | 1008.4 |
| 20260510053941 | 75 | 164 | 1.7 | 7.8 | 0.00 | 0.00 | 0.00 | 58 | 1008.3 |
| 20260510053413 | 75 | 158 | 2.6 | 7.8 | 0.00 | 0.00 | 0.00 | 58 | 1008.1 |
| 20260510052911 | 75 | 151 | 2.6 | 9.6 | 0.00 | 0.00 | 0.00 | 58 | 1007.9 |
| 20260510052346 | 75 | 168 | 2.6 | 9.6 | 0.00 | 0.00 | 0.00 | 58 | 1008.1 |
| 20260510052255 | 75 | 160 | 1.7 | 4.3 | 0.00 | 0.00 | 0.00 | 58 | 1008.2 |
| 20260510051252 | 76 | 162 | 1.7 | 7.0 | 0.00 | 0.00 | 0.00 | 57 | 1008.3 |
| 20260510051009 | 76 | 163 | 1.7 | 7.0 | 0.00 | 0.00 | 0.00 | 57 | 1008.1 |
| 20260510050512 | 75 | 138 | 2.6 | 9.6 | 0.00 | 0.00 | 0.00 | 78 | 1008.0 |
| 20260510045736 | 75 | 143 | 3.5 | 9.6 | 0.00 | 0.00 | 0.00 | 77 | 1007.9 |
| 20260510045236 | 76 | 120 | 4.3 | 10.4 | 0.00 | 0.00 | 0.00 | 77 | 1007.9 |
| 20260510044736 | 76 | 142 | 3.5 | 10.4 | 0.00 | 0.00 | 0.00 | 77 | 1007.7 |
| 20260510044222 | 76 | 132 | 2.6 | 7.8 | 0.00 | 0.00 | 0.00 | 76 | 1007.7 |
| 20260510043724 | 76 | 146 | 2.6 | 7.0 | 0.00 | 0.00 | 0.00 | 75 | 1007.6 |
| 20260510043206 | 76 | 136 | 3.5 | 7.0 | 0.00 | 0.00 | 0.00 | 75 | 1007.5 |
| 20260510042928 | 76 | 141 | 2.6 | 7.0 | 0.00 | 0.00 | 0.00 | 73 | 1007.6 |
| 20260510042204 | 76 | 143 | 1.7 | 7.0 | 0.00 | 0.00 | 0.00 | 72 | 1007.7 |
| 20260510041922 | 76 | 139 | 1.7 | 5.2 | 0.00 | 0.00 | 0.00 | 70 | 1007.9 |
| 20260510041200 | 76 | 121 | 1.7 | 6.1 | 0.00 | 0.00 | 0.00 | 69 | 1008.0 |
| 20260510040703 | 76 | 143 | 0.9 | 6.1 | 0.00 | 0.00 | 0.00 | 68 | 1008.0 |
| 20260510040622 | 76 | 127 | 1.7 | 3.5 | 0.00 | 0.00 | 0.00 | 68 | 1008.0 |
| 20260510035640 | 76 | 110 | 0.9 | 4.3 | 0.00 | 0.00 | 0.00 | 68 | 1007.9 |
| 20260510035118 | 76 | 125 | 0.9 | 2.6 | 0.00 | 0.00 | 0.00 | 68 | 1007.9 |
| 20260510034617 | 76 | 156 | 0.9 | 4.3 | 0.00 | 0.00 | 0.00 | 68 | 1007.9 |
| 20260510034107 | 76 | 141 | 0.9 | 4.3 | 0.00 | 0.00 | 0.00 | 67 | 1007.8 |
| 20260510033539 | 76 | 138 | 0.9 | 2.6 | 0.00 | 0.00 | 0.00 | 68 | 1007.8 |
| 20260510033035 | 75 | 117 | 0.0 | 1.7 | 0.00 | 0.00 | 0.00 | 69 | 1007.8 |
| 20260510032534 | 76 | 148 | 0.0 | 0.9 | 0.00 | 0.00 | 0.00 | 68 | 1007.8 |
| 20260510032037 | 76 | 116 | 0.0 | 1.7 | 0.00 | 0.00 | 0.00 | 67 | 1007.9 |
| 20260510031728 | 76 | 131 | 0.0 | 1.7 | 0.00 | 0.00 | 0.00 | 67 | 1007.9 |
| 20260510031203 | 75 | 115 | 0.0 | 2.6 | 0.00 | 0.00 | 0.00 | 69 | 1008.0 |
| 20260510031048 | 76 | 128 | 0.0 | 2.6 | 0.00 | 0.00 | 0.00 | 68 | 1007.9 |
| 20260510030608 | 74 | 129 | 0.0 | 1.7 | 0.00 | 0.00 | 0.00 | 70 | 1007.9 |
| 20260510025411 | 74 | 132 | 0.0 | 1.7 | 0.00 | 0.00 | 0.00 | 71 | 1007.9 |
| 20260510024842 | 74 | 117 | 0.0 | 0.0 | 0.00 | 0.00 | 0.00 | 71 | 1007.9 |
| 20260510024339 | 74 | 58 | 0.0 | 0.0 | 0.00 | 0.00 | 0.00 | 71 | 1007.9 |
| 20260510024052 | 74 | 58 | 0.0 | 0.0 | 0.00 | 0.00 | 0.00 | 70 | 1007.8 |
| 20260510023333 | 74 | 58 | 0.0 | 0.0 | 0.00 | 0.00 | 0.00 | 70 | 1007.8 |
| 20260510022810 | 74 | 58 | 0.0 | 0.0 | 0.00 | 0.00 | 0.00 | 69 | 1007.7 |
| 20260510022240 | 74 | 58 | 0.0 | 0.0 | 0.00 | 0.00 | 0.00 | 68 | 1007.7 |
| 20260510021737 | 75 | 58 | 0.0 | 0.0 | 0.00 | 0.00 | 0.00 | 67 | 1007.6 |
| 20260510021211 | 75 | 58 | 0.0 | 0.0 | 0.00 | 0.00 | 0.00 | 67 | 1007.6 |
| 20260510020708 | 75 | 58 | 0.0 | 0.0 | 0.00 | 0.00 | 0.00 | 66 | 1007.6 |
| 20260510020207 | 76 | 58 | 0.0 | 0.0 | 0.00 | 0.00 | 0.00 | 66 | 1007.5 |
| 20260510015654 | 76 | 58 | 0.0 | 0.0 | 0.00 | 0.00 | 0.00 | 66 | 1007.4 |
| 20260510015156 | 76 | 58 | 0.0 | 0.0 | 0.00 | 0.00 | 0.00 | 65 | 1007.3 |
| 20260510014909 | 77 | 58 | 0.0 | 0.0 | 0.00 | 0.00 | 0.00 | 64 | 1007.3 |
| 20260510014543 | 77 | 58 | 0.0 | 0.0 | 0.00 | 0.00 | 0.00 | 62 | 1007.2 |
| 20260510014205 | 77 | 58 | 0.0 | 0.0 | 0.00 | 0.00 | 0.00 | 63 | 1007.3 |
| 20260510013536 | 78 | 58 | 0.0 | 0.0 | 0.00 | 0.00 | 0.00 | 59 | 1007.2 |
| 20260510012810 | 78 | 58 | 0.0 | 0.0 | 0.00 | 0.00 | 0.00 | 58 | 1007.1 |
| 20260510012026 | 79 | 58 | 0.0 | 0.0 | 0.00 | 0.00 | 0.00 | 57 | 1007.0 |
| 20260510011456 | 79 | 58 | 0.0 | 1.7 | 0.00 | 0.00 | 0.00 | 57 | 1006.9 |
| 20260510011217 | 80 | 58 | 0.0 | 1.7 | 0.00 | 0.00 | 0.00 | 56 | 1006.8 |
| 20260510010429 | 80 | 30 | 0.0 | 0.9 | 0.00 | 0.00 | 0.00 | 54 | 1006.8 |
| 20260510005900 | 81 | 30 | 0.0 | 0.9 | 0.00 | 0.00 | 0.00 | 53 | 1006.7 |
| 20260510005357 | 82 | 30 | 0.0 | 0.9 | 0.00 | 0.00 | 0.00 | 52 | 1006.7 |
| 20260510004828 | 82 | 47 | 0.0 | 0.9 | 0.00 | 0.00 | 0.00 | 51 | 1006.7 |
| 20260510004327 | 82 | 49 | 0.0 | 0.9 | 0.00 | 0.00 | 0.00 | 50 | 1006.7 |
| 20260510003758 | 83 | 49 | 0.0 | 0.9 | 0.00 | 0.00 | 0.00 | 50 | 1006.7 |
| 20260510003256 | 83 | 49 | 0.0 | 0.9 | 0.00 | 0.00 | 0.00 | 50 | 1006.7 |
| 20260510002752 | 84 | 69 | 0.0 | 2.6 | 0.00 | 0.00 | 0.00 | 49 | 1006.7 |
| 20260510002511 | 84 | 75 | 0.0 | 1.7 | 0.00 | 0.00 | 0.00 | 47 | 1006.7 |
| 20260510001722 | 85 | 49 | 0.0 | 3.5 | 0.00 | 0.00 | 0.00 | 46 | 1006.8 |
| 20260510001218 | 85 | 324 | 0.0 | 3.5 | 0.00 | 0.00 | 0.00 | 44 | 1006.8 |
| 20260510000654 | 86 | 69 | 0.0 | 3.5 | 0.00 | 0.00 | 0.00 | 43 | 1006.8 |
| 20260510000126 | 86 | 35 | 0.0 | 3.5 | 0.00 | 0.00 | 0.00 | 42 | 1006.7 |
| 20260509235623 | 87 | 66 | 0.0 | 2.6 | 0.00 | 0.00 | 0.00 | 41 | 1006.7 |
| 20260509235342 | 87 | 54 | 0.0 | 2.6 | 0.00 | 0.00 | 0.00 | 41 | 1006.7 |
| 20260509234619 | 87 | 62 | 0.0 | 2.6 | 0.00 | 0.00 | 0.00 | 42 | 1006.7 |
| 20260509234051 | 87 | 77 | 0.0 | 2.6 | 0.00 | 0.00 | 0.00 | 44 | 1006.7 |
| 20260509234035 | 87 | 15 | 0.0 | 2.6 | 0.00 | 0.00 | 0.00 | 42 | 1006.7 |
| 20260509233044 | 87 | 336 | 0.0 | 2.6 | 0.00 | 0.00 | 0.00 | 42 | 1006.7 |
| 20260509232542 | 87 | 336 | 0.0 | 2.6 | 0.00 | 0.00 | 0.00 | 43 | 1006.7 |
| 20260509232018 | 87 | 56 | 0.0 | 2.6 | 0.00 | 0.00 | 0.00 | 45 | 1006.7 |
| 20260509231448 | 88 | 68 | 0.0 | 2.6 | 0.00 | 0.00 | 0.00 | 43 | 1006.7 |
| 20260509230947 | 87 | 68 | 0.0 | 4.3 | 0.00 | 0.00 | 0.00 | 42 | 1006.8 |
| 20260509230422 | 87 | 338 | 0.9 | 4.3 | 0.00 | 0.00 | 0.00 | 40 | 1006.8 |
| 20260509225852 | 87 | 73 | 0.9 | 4.3 | 0.00 | 0.00 | 0.00 | 38 | 1006.7 |
| 20260509225351 | 88 | 329 | 0.9 | 4.3 | 0.00 | 0.00 | 0.00 | 38 | 1006.7 |
| 20260509224824 | 88 | 36 | 0.0 | 4.3 | 0.00 | 0.00 | 0.00 | 39 | 1006.7 |
| 20260509224256 | 88 | 140 | 0.0 | 4.3 | 0.00 | 0.00 | 0.00 | 41 | 1006.7 |
| 20260509224020 | 88 | 86 | 0.0 | 2.6 | 0.00 | 0.00 | 0.00 | 41 | 1006.7 |
| 20260509223250 | 88 | 252 | 0.9 | 4.3 | 0.00 | 0.00 | 0.00 | 42 | 1006.7 |
| 20260509222746 | 88 | 130 | 0.9 | 4.3 | 0.00 | 0.00 | 0.00 | 43 | 1006.7 |
| 20260509222222 | 89 | 300 | 0.0 | 2.6 | 0.00 | 0.00 | 0.00 | 45 | 1006.6 |
| 20260509221654 | 88 | 51 | 0.0 | 2.6 | 0.00 | 0.00 | 0.00 | 46 | 1006.6 |
| 20260509221410 | 88 | 314 | 0.0 | 2.6 | 0.00 | 0.00 | 0.00 | 45 | 1006.7 |
| 20260509220645 | 87 | 10 | 0.0 | 2.6 | 0.00 | 0.00 | 0.00 | 46 | 1006.7 |
| 20260509220118 | 87 | 339 | 0.9 | 5.2 | 0.00 | 0.00 | 0.00 | 47 | 1006.7 |
| 20260509215558 | 87 | 121 | 1.7 | 6.1 | 0.00 | 0.00 | 0.00 | 48 | 1006.7 |
| 20260509215058 | 87 | 349 | 0.9 | 6.1 | 0.00 | 0.00 | 0.00 | 45 | 1006.7 |
| 20260509214558 | 88 | 11 | 0.9 | 5.2 | 0.00 | 0.00 | 0.00 | 45 | 1006.8 |
| 20260509214053 | 88 | 6 | 0.0 | 3.5 | 0.00 | 0.00 | 0.00 | 48 | 1006.8 |
| 20260509213530 | 88 | 39 | 0.0 | 3.5 | 0.00 | 0.00 | 0.00 | 44 | 1006.9 |
| 20260509213000 | 88 | 9 | 0.9 | 3.5 | 0.00 | 0.00 | 0.00 | 46 | 1006.9 |
| 20260509212459 | 88 | 119 | 0.9 | 4.3 | 0.00 | 0.00 | 0.00 | 47 | 1007.1 |
| 20260509211942 | 88 | 78 | 0.9 | 4.3 | 0.00 | 0.00 | 0.00 | 47 | 1007.1 |
| 20260509211440 | 88 | 107 | 0.9 | 6.1 | 0.00 | 0.00 | 0.00 | 47 | 1007.1 |
| 20260509210940 | 88 | 82 | 0.9 | 6.1 | 0.00 | 0.00 | 0.00 | 45 | 1007.2 |
| 20260509210440 | 89 | 59 | 0.0 | 2.6 | 0.00 | 0.00 | 0.00 | 49 | 1007.3 |
| 20260509205910 | 88 | 338 | 0.9 | 5.2 | 0.00 | 0.00 | 0.00 | 48 | 1007.2 |
| 20260509205408 | 88 | 115 | 0.9 | 5.2 | 0.00 | 0.00 | 0.00 | 52 | 1007.4 |
| 20260509205104 | 87 | 155 | 0.0 | 3.5 | 0.00 | 0.00 | 0.00 | 54 | 1007.5 |
| 20260509204317 | 87 | 28 | 0.9 | 7.0 | 0.00 | 0.00 | 0.00 | 50 | 1007.6 |
| 20260509203748 | 86 | 15 | 1.7 | 7.0 | 0.00 | 0.00 | 0.00 | 47 | 1007.6 |
| 20260509203246 | 86 | 100 | 2.6 | 7.0 | 0.00 | 0.00 | 0.00 | 51 | 1007.7 |
| 20260509202733 | 87 | 330 | 1.7 | 7.0 | 0.00 | 0.00 | 0.00 | 48 | 1007.8 |
| 20260509202231 | 87 | 69 | 0.9 | 3.5 | 0.00 | 0.00 | 0.00 | 53 | 1007.9 |
| 20260509201734 | 87 | 146 | 0.9 | 3.5 | 0.00 | 0.00 | 0.00 | 53 | 1007.9 |
| 20260509201208 | 87 | 74 | 0.9 | 5.2 | 0.00 | 0.00 | 0.00 | 51 | 1008.0 |
| 20260509200705 | 87 | 1 | 0.9 | 5.2 | 0.00 | 0.00 | 0.00 | 51 | 1008.0 |
| 20260509200142 | 87 | 96 | 0.0 | 4.3 | 0.00 | 0.00 | 0.00 | 56 | 1008.0 |
| 20260509195614 | 86 | 18 | 0.9 | 4.3 | 0.00 | 0.00 | 0.00 | 52 | 1008.0 |
| 20260509195317 | 85 | 38 | 1.7 | 5.2 | 0.00 | 0.00 | 0.00 | 56 | 1008.0 |
| 20260509194739 | 86 | 26 | 0.9 | 5.2 | 0.00 | 0.00 | 0.00 | 54 | 1008.1 |
| 20260509194017 | 86 | 146 | 0.9 | 4.3 | 0.00 | 0.00 | 0.00 | 54 | 1008.2 |
| 20260509193517 | 86 | 176 | 0.9 | 4.3 | 0.00 | 0.00 | 0.00 | 57 | 1008.2 |
| 20260509193218 | 86 | 144 | 0.9 | 6.1 | 0.00 | 0.00 | 0.00 | 61 | 1008.2 |
| 20260509192428 | 85 | 357 | 0.9 | 6.1 | 0.00 | 0.00 | 0.00 | 59 | 1008.2 |
| 20260509191900 | 86 | 341 | 0.9 | 6.1 | 0.00 | 0.00 | 0.00 | 57 | 1008.3 |
| 20260509191338 | 86 | 53 | 0.9 | 6.1 | 0.00 | 0.00 | 0.00 | 58 | 1008.4 |
| 20260509190837 | 85 | 47 | 0.9 | 5.2 | 0.00 | 0.00 | 0.00 | 59 | 1008.4 |
| 20260509190316 | 85 | 77 | 0.9 | 5.2 | 0.00 | 0.00 | 0.00 | 62 | 1008.4 |
| 20260509185941 | 85 | 321 | 0.9 | 5.2 | 0.00 | 0.00 | 0.00 | 61 | 1008.5 |
| 20260509185441 | 84 | 131 | 1.7 | 11.3 | 0.00 | 0.00 | 0.00 | 61 | 1008.5 |
| 20260509184711 | 84 | 73 | 2.6 | 11.3 | 0.00 | 0.00 | 0.00 | 60 | 1008.4 |
| 20260509184212 | 84 | 347 | 1.7 | 8.7 | 0.00 | 0.00 | 0.00 | 59 | 1008.4 |
| 20260509183709 | 84 | 45 | 0.9 | 8.7 | 0.00 | 0.00 | 0.00 | 62 | 1008.4 |
| 20260509183435 | 83 | 72 | 1.7 | 7.0 | 0.00 | 0.00 | 0.00 | 62 | 1008.4 |
| 20260509182648 | 83 | 322 | 1.7 | 7.8 | 0.00 | 0.00 | 0.00 | 60 | 1008.4 |
| 20260509182149 | 83 | 83 | 1.7 | 7.8 | 0.00 | 0.00 | 0.00 | 64 | 1008.5 |
| 20260509181916 | 83 | 50 | 1.7 | 7.0 | 0.00 | 0.00 | 0.00 | 61 | 1008.6 |
| 20260509181128 | 83 | 323 | 1.7 | 7.0 | 0.00 | 0.00 | 0.00 | 60 | 1008.7 |
| 20260509180627 | 83 | 328 | 1.7 | 6.1 | 0.00 | 0.00 | 0.00 | 61 | 1008.7 |
| 20260509180338 | 83 | 63 | 0.9 | 5.2 | 0.00 | 0.00 | 0.00 | 62 | 1008.7 |
| 20260509175548 | 83 | 326 | 0.9 | 7.0 | 0.00 | 0.00 | 0.00 | 61 | 1008.8 |
| 20260509175026 | 83 | 348 | 0.9 | 7.0 | 0.00 | 0.00 | 0.00 | 62 | 1008.9 |
| 20260509174747 | 82 | 347 | 0.9 | 5.2 | 0.00 | 0.00 | 0.00 | 62 | 1009.0 |
| 20260509174024 | 82 | 336 | 0.9 | 5.2 | 0.00 | 0.00 | 0.00 | 62 | 1008.9 |
| 20260509173500 | 83 | 354 | 0.9 | 5.2 | 0.00 | 0.00 | 0.00 | 61 | 1009.0 |
| 20260509172941 | 83 | 355 | 0.9 | 6.1 | 0.00 | 0.00 | 0.00 | 64 | 1009.1 |
| 20260509172416 | 83 | 337 | 0.9 | 6.1 | 0.00 | 0.00 | 0.00 | 61 | 1009.1 |
| 20260509171850 | 83 | 249 | 0.9 | 4.3 | 0.00 | 0.00 | 0.00 | 60 | 1009.1 |
| 20260509171327 | 82 | 118 | 0.9 | 4.3 | 0.00 | 0.00 | 0.00 | 64 | 1009.2 |
| 20260509170758 | 82 | 27 | 0.9 | 4.3 | 0.00 | 0.00 | 0.00 | 64 | 1009.3 |
| 20260509170258 | 82 | 356 | 1.7 | 5.2 | 0.00 | 0.00 | 0.00 | 62 | 1009.3 |
| 20260509165755 | 81 | 359 | 0.9 | 5.2 | 0.00 | 0.00 | 0.00 | 62 | 1009.2 |
| 20260509165255 | 81 | 336 | 0.9 | 6.1 | 0.00 | 0.00 | 0.00 | 66 | 1009.1 |
| 20260509164755 | 81 | 354 | 0.9 | 6.1 | 0.00 | 0.00 | 0.00 | 66 | 1009.2 |
| 20260509164256 | 81 | 68 | 0.9 | 3.5 | 0.00 | 0.00 | 0.00 | 64 | 1009.2 |
| 20260509163943 | 81 | 8 | 0.9 | 5.2 | 0.00 | 0.00 | 0.00 | 64 | 1009.2 |
| 20260509163225 | 81 | 52 | 0.9 | 5.2 | 0.00 | 0.00 | 0.00 | 65 | 1009.3 |
| 20260509162659 | 80 | 5 | 0.9 | 3.5 | 0.00 | 0.00 | 0.00 | 66 | 1009.2 |
| 20260509162157 | 80 | 329 | 0.9 | 3.5 | 0.00 | 0.00 | 0.00 | 67 | 1009.2 |
| 20260509161633 | 79 | 22 | 1.7 | 6.1 | 0.00 | 0.00 | 0.00 | 68 | 1009.2 |
| 20260509161128 | 79 | 20 | 0.9 | 6.1 | 0.00 | 0.00 | 0.00 | 68 | 1009.1 |
| 20260509160626 | 79 | 334 | 1.7 | 6.1 | 0.00 | 0.00 | 0.00 | 68 | 1009.2 |
| 20260509160349 | 78 | 13 | 2.6 | 9.6 | 0.00 | 0.00 | 0.00 | 69 | 1009.2 |
| 20260509155623 | 78 | 326 | 1.7 | 9.6 | 0.00 | 0.00 | 0.00 | 69 | 1009.2 |
| 20260509155118 | 78 | 9 | 1.7 | 6.1 | 0.00 | 0.00 | 0.00 | 70 | 1009.1 |
| 20260509154614 | 78 | 338 | 1.7 | 5.2 | 0.00 | 0.00 | 0.00 | 69 | 1009.1 |
| 20260509154113 | 78 | 38 | 0.9 | 6.1 | 0.00 | 0.00 | 0.00 | 71 | 1009.1 |
| 20260509153609 | 77 | 358 | 1.7 | 6.1 | 0.00 | 0.00 | 0.00 | 70 | 1009.1 |
| 20260509153105 | 77 | 323 | 0.9 | 5.2 | 0.00 | 0.00 | 0.00 | 71 | 1009.1 |
| 20260509152825 | 77 | 349 | 1.7 | 5.2 | 0.00 | 0.00 | 0.00 | 72 | 1009.0 |
| 20260509152037 | 77 | 72 | 1.7 | 7.8 | 0.00 | 0.00 | 0.00 | 72 | 1008.9 |
| 20260509151512 | 77 | 337 | 1.7 | 7.8 | 0.00 | 0.00 | 0.00 | 71 | 1009.0 |
| 20260509150946 | 76 | 352 | 2.6 | 7.0 | 0.00 | 0.00 | 0.00 | 72 | 1009.0 |
| 20260509150420 | 76 | 350 | 2.6 | 5.2 | 0.00 | 0.00 | 0.00 | 73 | 1009.0 |
| 20260509150119 | 76 | 342 | 2.6 | 9.6 | 0.00 | 0.00 | 0.00 | 73 | 1009.1 |
| 20260509145349 | 76 | 351 | 2.6 | 5.2 | 0.00 | 0.00 | 0.00 | 74 | 1009.1 |
| 20260509144848 | 75 | 320 | 1.7 | 7.0 | 0.00 | 0.00 | 0.00 | 74 | 1009.2 |
| 20260509144544 | 75 | 321 | 1.7 | 7.0 | 0.00 | 0.00 | 0.00 | 76 | 1009.3 |
| 20260509144243 | 75 | 330 | 0.9 | 6.1 | 0.00 | 0.00 | 0.00 | 76 | 1009.2 |